Location: Arrodets-la-Barthe
(43.0306°N, 0.2829°E)
Time: 23:32:04
(UTC+00:00)

Iridium 4 Rocket - Pass Details

Date: 06 June 2022
Orbit: 585 x 902 km, 86.9° (Epoch: 03 July)

Event Time Altitude Azimuth Distance (km) Brightness Sun altitude
Rises 22:27:26 0° 350° (N) 3,181 8.1 -21.0°
Reaches altitude 10° 22:29:46 10° 344° (NNW) 2,302 7.1 -21.2°
Maximum altitude 22:34:38 43° 274° (W) 1,119 4.5 -21.5°
Enters shadow 22:37:25 25° 218° (SW) 1,633 4.9 -21.7°
